This is the latest recevied weather packets stored in our database for station/object KF0FSA. If no packets are shown the sender has not sent any weather packets the latest 10 day(s).
| Time | Temp. | Humidity | Pressure | Rain* | Wind** | Luminosity | Snow |
|---|---|---|---|---|---|---|---|
| 1777144802 | 6.11° C | 89% | 961.9 hPa | 0 mm | - | 120 W/m² | - |
| 1777144627 | 6.11° C | 90% | 961.6 hPa | 0 mm | - | 112 W/m² | - |
| 1777144327 | 6.11° C | 90% | 961.6 hPa | 0 mm | - | 99 W/m² | - |
| 1777143902 | 6.11° C | 90% | 961.6 hPa | 0 mm | - | 86 W/m² | - |
| 1777143607 | 6.11° C | 90% | 961.6 hPa | 0 mm | - | 105 W/m² | - |
| 1777143303 | 6.11° C | 90% | 961.8 hPa | 0 mm | - | 101 W/m² | - |
| 1777143003 | 6.11° C | 90% | 961.9 hPa | 0 mm | - | 118 W/m² | - |
| 1777142703 | 6.11° C | 90% | 961.9 hPa | 0.25 mm | - | 141 W/m² | - |
| 1777142403 | 6.11° C | 90% | 962.1 hPa | 0.25 mm | - | 135 W/m² | - |
| 1777142103 | 6.11° C | 90% | 962.1 hPa | 0.25 mm | - | 98 W/m² | - |
| 1777141804 | 6.11° C | 89% | 962.2 hPa | 0.25 mm | - | 125 W/m² | - |
| 1777141503 | 6.11° C | 90% | 962.2 hPa | 0.25 mm | - | 138 W/m² | - |
| 1777141327 | 6.11° C | 90% | 962.1 hPa | 0.25 mm | - | 141 W/m² | - |
| 1777140903 | 6.11° C | 90% | 962.2 hPa | 0.25 mm | - | 171 W/m² | - |
| 1777140600 | 6.11° C | 91% | 962.3 hPa | 0.25 mm | - | 132 W/m² | - |
| 1777140300 | 6.67° C | 91% | 962.5 hPa | 0.51 mm | - | 81 W/m² | - |
| 1777140000 | 6.67° C | 91% | 962.5 hPa | 1.02 mm | - | 118 W/m² | - |
| 1777139701 | 6.67° C | 90% | 962.5 hPa | 1.27 mm | - | 176 W/m² | - |
| 1777139400 | 6.67° C | 90% | 962.5 hPa | 1.27 mm | - | 146 W/m² | - |
| 1777139225 | 6.67° C | 90% | 962.5 hPa | 1.02 mm | - | 155 W/m² | - |
| 1777138800 | 6.67° C | 91% | 962.6 hPa | 1.02 mm | - | 200 W/m² | - |
| 1777138501 | 6.67° C | 91% | 962.5 hPa | 1.02 mm | - | 237 W/m² | - |
| 1777138200 | 6.67° C | 90% | 962.7 hPa | 1.02 mm | - | 179 W/m² | - |
| 1777138024 | 6.67° C | 90% | 962.9 hPa | 1.02 mm | - | 126 W/m² | - |
| 1777137601 | 6.67° C | 90% | 962.9 hPa | 1.02 mm | - | 124 W/m² | - |
* Rain latest hour (hover to see other rain measurements)
** Current wind speed in m/s (hover to see current wind gust speed)